Location: Stigler
(35.2540°N, 95.1230°W)
Time: 21:15:02
(UTC-05:00)

Gbstr 26 Del rocket - Pass Details

Date: 26 September 2017
Orbit: 493 x 1265 km, 51.8° (Epoch: 22 October)

Event Time Altitude Azimuth Distance (km) Brightness Sun altitude
Rises 20:23:30 0° 198° (SSW) 2,874 6.6 -15.6°
Reaches altitude 10° 20:25:48 10° 187° (S) 2,071 5.7 -16.0°
Maximum altitude 20:30:01 32° 125° (SE) 1,284 4.2 -16.9°
Enters shadow 20:31:06 29° 102° (ESE) 1,394 4.2 -17.1°
